[[{"header":{"parameterUnit":"m.s-1","parameterCategory":1,"la1":30.2991,"la2":30.254,"lo1":-89.0895,"lo2":-89.0444,"dy":0.0017,"dx":0.0017,"nx":28,"ny":28,"refTime":"2024-03-02T03:00:00:Z","depth":0,"parameterNumber":2,"parameterNumberName":"U-component_of_WINDS"},"data":[0,0,0,0,0,0,0,0,0,0,0,0,0,0,0,0,0,0,0,0,0,0,0,0,0,0,0,0,0,0,0,0,0,0,0,0,0,0,0,0,0,0,0,0,0,0,0,0,0,0,0,0,0,0,0,0,0,0,-2.1119,-2.112,0,-2.1153,-2.1153,-2.1153,-2.1121,-2.112,-2.1118,-2.1117,-2.115,-2.1152,-2.1154,0,0,0,0,0,0,0,0,0,0,0,0,0,-2.1027,-2.1029,-2.1119,-2.112,-2.112,-2.1152,-2.1153,-2.1153,-2.1121,-2.112,-2.1118,-2.1117,-2.115,-2.1152,-2.1154,0,0,0,0,0,0,0,0,0,0,0,0,0,-2.1065,-2.103,-2.1119,-2.1108,-2.1107,-2.1152,-2.1153,-2.1153,-2.1121,-2.1119,-2.1118,-2.1116,-2.1149,-2.1152,-2.1155,-2.1212,0,0,-2.1164,-2.1166,0,0,0,0,0,0,0,0,-2.1062,-2.1068,-2.1109,-2.1109,-2.1108,-2.1131,-2.1133,-2.1173,-2.1122,-2.1116,-2.1117,-2.1115,-2.1145,-2.1148,-2.1159,-2.1214,-2.1215,-2.1165,-2.1167,-2.1168,-2.1169,0,0,0,0,0,0,0,-2.106,-2.1066,-2.1132,-2.111,-2.1109,-2.1101,-2.1104,-2.114,-2.1141,-2.1116,-2.1114,-2.1119,-2.1145,-2.1156,-2.1159,-2.1216,-2.1165,-2.1167,-2.1169,-2.117,-2.1321,-2.1323,0,0,0,0,0,0,-2.1059,-2.1064,-2.1131,-2.1133,-2.108,-2.1104,-2.1108,-2.1125,-2.114,-2.1141,-2.112,-2.1117,-2.1152,-2.1156,-2.116,-2.123,-2.1168,-2.1171,-2.1173,-2.1319,-2.1322,-2.1324,0,0,0,0,0,0,-2.1057,-2.1065,-2.113,-2.1098,-2.1106,-2.1108,-2.1128,-2.1127,-2.1138,-2.1143,-2.1143,-2.1132,-2.115,-2.1156,-2.12,-2.1231,-2.1172,-2.1175,-2.1316,-2.132,-2.1323,-2.1369,0,0,0,0,0,0,-2.1054,-2.1064,-2.1087,-2.1099,-2.1108,-2.1169,-2.113,-2.1129,-2.1144,-2.114,-2.1154,-2.1155,-2.1149,-2.1196,-2.1203,-2.1234,-2.1177,-2.1314,-2.1318,-2.1322,-2.1365,-2.1373,-2.1381,0,0,0,0,0,-2.1051,-2.1098,-2.1088,-2.1096,-2.1135,-2.1171,-2.1176,-2.1169,-2.1147,-2.1169,-2.1172,-2.1154,-2.1226,-2.12,-2.1209,-2.1241,-2.1312,-2.1317,-2.1321,-2.1361,-2.1372,-2.1381,0,0,0,0,0,0,-2.1088,-2.1099,-2.1088,-2.114,-2.1155,-2.1166,-2.1193,-2.118,-2.1202,-2.1197,-2.1187,-2.119,-2.1237,-2.1243,-2.1215,-2.1298,-2.1265,-2.1272,-2.1293,-2.1303,-2.131,-2.1308,-2.118,0,0,0,0,0,-2.1102,-2.1131,-2.1139,-2.1184,-2.1192,-2.1192,-2.1207,-2.12,-2.1215,-2.1221,-2.1227,-2.1242,-2.1268,-2.1285,-2.1309,-2.1365,-2.1368,-2.1391,-2.1399,-2.1406,-2.1412,-2.1443,-2.1453,-2.134,-2.134,-2.134,0,0,-2.1132,-2.1142,-2.116,-2.1192,-2.1202,-2.1232,-2.1197,-2.123,-2.1252,-2.1226,-2.1268,-2.1274,-2.1289,-2.134,-2.1362,-2.1346,-2.1444,-2.1412,-2.1417,-2.142,-2.1449,-2.146,-2.1469,-2.1343,-2.1342,-2.1342,0,0,-2.1202,-2.1211,-2.1251,-2.1263,-2.1279,-2.1279,-2.1288,-2.1301,-2.1304,-2.1346,-2.1328,-2.1354,-2.1398,-2.1411,-2.1423,-2.1498,-2.1483,-2.1506,-2.1548,-2.1578,-2.1587,-2.1595,-2.1623,-2.1633,-2.1512,-2.1512,-2.1512,0,-2.1237,-2.1281,-2.1273,-2.1307,-2.1322,-2.13,-2.134,-2.1352,-2.1375,-2.1386,-2.1367,-2.1424,-2.1433,-2.1486,-2.1505,-2.1515,-2.1526,-2.1505,-2.1587,-2.1595,-2.1602,-2.1628,-2.1639,-2.1515,-2.1514,-2.1514,-2.1514,0,-2.1324,-2.1355,-2.1384,-2.1409,-2.1426,-2.1463,-2.1461,-2.148,-2.1472,-2.1473,-2.1517,-2.1527,-2.1553,-2.1565,-2.1557,-2.1618,-2.1608,-2.1588,-2.1555,-2.1616,-2.1641,-2.1651,-2.1519,-2.1518,-2.1517,-2.1516,0,0,-2.1418,-2.1438,-2.1449,-2.146,-2.1477,-2.1501,-2.1537,-2.1563,-2.158,-2.1597,-2.1628,-2.1666,-2.1649,-2.1662,-2.1656,-2.1682,-2.1742,-2.1659,-2.1659,-2.1675,-2.1811,-2.1827,-2.1839,-2.1732,-2.1734,-2.1735,-2.181,0,-2.1489,-2.1552,-2.1546,-2.1607,-2.1636,-2.1616,-2.1647,-2.1661,-2.1664,-2.1688,-2.1691,-2.1719,-2.1692,-2.1701,-2.1726,-2.173,-2.177,-2.1724,-2.1761,-2.1762,-2.1759,-2.1852,-2.1868,-2.1938,-2.182,-2.1821,-2.1823,0,-2.1581,-2.1602,-2.1666,-2.1679,-2.1691,-2.172,-2.1744,-2.1768,-2.1783,-2.1783,-2.1799,-2.1788,-2.1824,-2.179,-2.1841,-2.181,-2.1824,-2.1828,-2.1831,-2.1835,-2.1797,-2.1859,-2.196,-2.1972,-2.1838,-2.1836,-2.1835,0,-2.1645,-2.1689,-2.1733,-2.1743,-2.176,-2.1781,-2.1789,-2.1802,-2.1819,-2.1839,-2.185,-2.1875,-2.1888,-2.1907,-2.1903,-2.1878,-2.1955,-2.192,-2.1957,-2.1957,-2.1975,-2.1974,-2.2081,-2.1982,-2.1982,-2.1982,-2.1982,0,-2.1726,-2.1766,-2.1762,-2.179,-2.1834,-2.1826,-2.187,-2.1875,-2.1888,-2.1916,-2.1899,-2.1926,-2.1918,-2.1944,-2.1941,-2.1984,-2.199,-2.1991,-2.199,-2.1993,-2.1994,-2.2004,-2.1999,-2.1985,-2.1984,-2.1983,-2.1983,0,-2.1805,-2.1805,-2.1851,-2.1864,-2.1868,-2.19,-2.191,-2.1936,-2.1937,-2.1973,-2.1981,-2.1982,-2.2013,-2.201,-2.2043,-2.2041,-2.2095,-2.2087,-2.209,-2.2089,-2.2126,-2.2123,-2.2244,-2.226,-2.215,-2.2151,-2.2152,0,-2.1858,-2.1888,-2.1904,-2.1922,-2.1931,-2.196,-2.1977,-2.197,-2.1989,-2.2009,-2.2033,-2.2061,-2.2084,-2.2133,-2.2137,-2.2163,-2.2157,-2.2197,-2.216,-2.2163,-2.2159,-2.2158,-2.2161,-2.2205,-2.2206,-2.2207,-2.2208,0,-2.1951,-2.1949,-2.1975,-2.2,-2.2021,-2.2041,-2.2059,-2.2074,-2.2069,-2.2091,-2.2122,-2.2139,-2.2174,-2.2203,-2.2228,-2.2235,-2.2222,-2.2219,-2.223,-2.2234,-2.2235,-2.2236,-2.2111,-2.2217,-2.2216,-2.2215,-2.2215,-2.2215,-2.2019,-2.2046,-2.2062,-2.2091,-2.2104,-2.2121,-2.2146,-2.2151,-2.2176,-2.2205,-2.2199,-2.2234,-2.2249,-2.2281,-2.2291,-2.2318,-2.2304,-2.2318,-2.2322,-2.2326,-2.2331,-2.223,-2.2323,-2.2322,-2.2322,-2.2322,-2.2322,0,-2.2113,-2.2122,-2.2149,-2.2175,-2.2198,-2.2183,-2.2202,-2.2222,-2.2253,-2.2269,-2.2292,-2.2328,-2.2356,-2.2362,-2.2389,-2.241,-2.2404,-2.2417,-2.2416,-2.2419,-2.2342,-2.2331,-2.2422,-2.2422,-2.2422,-2.2422,-2.2422,-2.2422,-2.2165,-2.2209,-2.221,-2.2261,-2.2269,-2.2304,-2.2316,-2.2332,-2.2345,-2.2386,-2.2409,-2.2414,-2.2426,-2.2454,-2.2479,-2.248,-2.2491,-2.2507,-2.2506,-2.2434,-2.2424,-2.2415,-2.2404,-2.2509,-2.251,-2.2581,-2.2582,-2.2582]},{"header":{"parameterUnit":"m.s-1","parameterCategory":1,"la1":30.2991,"la2":30.254,"lo1":-89.0895,"lo2":-89.0444,"dy":0.0017,"dx":0.0017,"nx":28,"ny":28,"refTime":"2024-03-02T03:00:00:Z","depth":0,"parameterNumber":3,"parameterNumberName":"V-component_of_WINDS"},"data":[0,0,0,0,0,0,0,0,0,0,0,0,0,0,0,0,0,0,0,0,0,0,0,0,0,0,0,0,0,0,0,0,0,0,0,0,0,0,0,0,0,0,0,0,0,0,0,0,0,0,0,0,0,0,0,0,0,0,-2.2903,-2.2903,0,-2.2891,-2.2891,-2.2891,-2.2859,-2.2858,-2.2857,-2.2857,-2.2846,-2.2846,-2.2847,0,0,0,0,0,0,0,0,0,0,0,0,0,-2.2897,-2.2897,-2.2903,-2.2903,-2.2902,-2.2891,-2.2891,-2.2891,-2.2859,-2.2858,-2.2857,-2.2856,-2.2846,-2.2846,-2.2847,0,0,0,0,0,0,0,0,0,0,0,0,0,-2.2894,-2.2897,-2.2903,-2.2885,-2.2883,-2.2892,-2.2891,-2.2891,-2.2859,-2.2858,-2.2857,-2.2856,-2.2846,-2.2846,-2.2847,-2.2871,0,0,-2.2848,-2.2849,0,0,0,0,0,0,0,0,-2.2894,-2.2894,-2.2888,-2.2886,-2.2884,-2.2875,-2.2885,-2.2885,-2.2859,-2.2868,-2.2857,-2.2855,-2.2857,-2.2856,-2.2856,-2.2871,-2.2871,-2.2848,-2.2849,-2.2849,-2.2849,0,0,0,0,0,0,0,-2.2894,-2.2894,-2.2898,-2.2888,-2.2886,-2.2878,-2.2876,-2.2885,-2.2869,-2.2867,-2.2865,-2.2864,-2.2855,-2.2856,-2.2856,-2.287,-2.2848,-2.2849,-2.2849,-2.285,-2.2904,-2.2905,0,0,0,0,0,0,-2.2897,-2.2895,-2.2899,-2.2898,-2.2887,-2.2879,-2.2877,-2.2879,-2.2868,-2.2866,-2.2865,-2.2863,-2.2856,-2.2855,-2.2855,-2.2883,-2.2849,-2.285,-2.285,-2.2903,-2.2905,-2.2906,0,0,0,0,0,0,-2.2897,-2.2898,-2.2899,-2.2896,-2.2895,-2.288,-2.2883,-2.288,-2.288,-2.2867,-2.2864,-2.2869,-2.2855,-2.2855,-2.2868,-2.2883,-2.285,-2.285,-2.2902,-2.2904,-2.2905,-2.294,0,0,0,0,0,0,-2.2897,-2.2898,-2.2907,-2.2896,-2.2896,-2.2911,-2.2884,-2.288,-2.2881,-2.2878,-2.2869,-2.2867,-2.2854,-2.2867,-2.2868,-2.2883,-2.2851,-2.2901,-2.2903,-2.2905,-2.2938,-2.2943,-2.2947,0,0,0,0,0,-2.2897,-2.2917,-2.2908,-2.2908,-2.2907,-2.2912,-2.2912,-2.2897,-2.2882,-2.2892,-2.2883,-2.2867,-2.2881,-2.2869,-2.287,-2.2885,-2.29,-2.2902,-2.2905,-2.2935,-2.2942,-2.2947,0,0,0,0,0,0,-2.2931,-2.2916,-2.2905,-2.2922,-2.2919,-2.2907,-2.2918,-2.2904,-2.2905,-2.2902,-2.2883,-2.2881,-2.2897,-2.2892,-2.2879,-2.2908,-2.2888,-2.289,-2.2911,-2.2917,-2.2921,-2.2922,-2.2851,0,0,0,0,0,-2.294,-2.2946,-2.2933,-2.2949,-2.2948,-2.2934,-2.2935,-2.2924,-2.292,-2.2918,-2.291,-2.2907,-2.291,-2.2913,-2.2916,-2.2937,-2.2934,-2.2948,-2.2953,-2.2957,-2.2959,-2.297,-2.2975,-2.2914,-2.2914,-2.2914,0,0,-2.296,-2.2953,-2.2957,-2.2956,-2.2952,-2.2958,-2.2932,-2.294,-2.2945,-2.2919,-2.2931,-2.2925,-2.292,-2.2937,-2.2944,-2.2934,-2.2976,-2.296,-2.2963,-2.2964,-2.2973,-2.2979,-2.2984,-2.2916,-2.2916,-2.2915,0,0,-2.2999,-2.2994,-2.3008,-2.3004,-2.2998,-2.2988,-2.2991,-2.2981,-2.2976,-2.2988,-2.2969,-2.2974,-2.298,-2.2978,-2.2977,-2.3015,-2.3,-2.3016,-2.3042,-2.3052,-2.3057,-2.3061,-2.3075,-2.308,-2.3019,-2.3019,-2.3019,0,-2.3025,-2.3033,-2.3016,-2.3025,-2.3025,-2.3002,-2.3016,-2.3013,-2.3008,-2.3009,-2.2997,-2.3005,-2.3,-2.3016,-2.3025,-2.3025,-2.3029,-2.3017,-2.3058,-2.3062,-2.3065,-2.3078,-2.3083,-2.3021,-2.3021,-2.3021,-2.3021,0,-2.3065,-2.3071,-2.3083,-2.3078,-2.308,-2.3091,-2.3076,-2.3079,-2.3068,-2.3059,-2.3071,-2.3064,-2.3065,-2.3068,-2.3057,-2.3082,-2.3076,-2.3061,-2.304,-2.3074,-2.3085,-2.309,-2.3024,-2.3023,-2.3023,-2.3022,0,0,-2.3125,-2.3111,-2.3116,-2.3113,-2.3105,-2.311,-2.312,-2.312,-2.3123,-2.3121,-2.3129,-2.3135,-2.3122,-2.3121,-2.3109,-2.3119,-2.3149,-2.3103,-2.3102,-2.3112,-2.3176,-2.3187,-2.3193,-2.3139,-2.314,-2.3141,-2.3177,0,-2.3162,-2.3178,-2.3163,-2.3183,-2.3188,-2.3166,-2.3175,-2.3171,-2.3163,-2.3167,-2.3158,-2.3163,-2.3145,-2.3144,-2.3152,-2.3144,-2.3162,-2.3141,-2.3147,-2.3147,-2.3148,-2.3199,-2.3211,-2.3245,-2.3181,-2.3182,-2.3182,0,-2.3207,-2.3207,-2.3227,-2.3217,-2.3218,-2.3227,-2.3226,-2.3229,-2.3224,-2.3218,-2.3217,-2.3203,-2.3212,-2.3192,-2.3205,-2.3191,-2.3192,-2.3188,-2.3189,-2.3189,-2.3167,-2.32,-2.3256,-2.3261,-2.3189,-2.3189,-2.3188,0,-2.3249,-2.3253,-2.3266,-2.3264,-2.3253,-2.3259,-2.3255,-2.3249,-2.325,-2.3249,-2.325,-2.325,-2.3251,-2.3251,-2.3238,-2.3224,-2.3252,-2.3231,-2.3247,-2.3248,-2.3254,-2.3254,-2.331,-2.3255,-2.3255,-2.3255,-2.3255,0,-2.3292,-2.3305,-2.3284,-2.3292,-2.3306,-2.3288,-2.3303,-2.3296,-2.3291,-2.3297,-2.3278,-2.3284,-2.3265,-2.327,-2.3259,-2.3271,-2.3271,-2.3267,-2.3264,-2.3268,-2.3269,-2.3269,-2.3266,-2.3257,-2.3256,-2.3256,-2.3256,0,-2.3341,-2.3328,-2.334,-2.3328,-2.3325,-2.3336,-2.3326,-2.3333,-2.3323,-2.3331,-2.3332,-2.3318,-2.3322,-2.3308,-2.331,-2.3303,-2.3321,-2.3314,-2.3322,-2.332,-2.3337,-2.3336,-2.3396,-2.3403,-2.3344,-2.3344,-2.3345,0,-2.3369,-2.3379,-2.3368,-2.337,-2.3367,-2.3371,-2.3372,-2.3355,-2.3357,-2.3352,-2.3359,-2.3362,-2.3362,-2.337,-2.336,-2.3361,-2.3354,-2.3375,-2.3354,-2.3358,-2.3354,-2.3354,-2.3354,-2.3379,-2.338,-2.3381,-2.3381,0,-2.3421,-2.3413,-2.3415,-2.3415,-2.3416,-2.3415,-2.3413,-2.3416,-2.3398,-2.3401,-2.3405,-2.3405,-2.3407,-2.341,-2.3409,-2.3404,-2.339,-2.3388,-2.3392,-2.3396,-2.3401,-2.3398,-2.3334,-2.3386,-2.3386,-2.3385,-2.3385,-2.3385,-2.346,-2.3467,-2.346,-2.3463,-2.346,-2.3458,-2.3463,-2.3455,-2.3457,-2.3457,-2.3447,-2.3453,-2.3447,-2.3444,-2.3442,-2.3446,-2.3436,-2.3442,-2.3443,-2.3445,-2.3448,-2.34,-2.3446,-2.3445,-2.3445,-2.3445,-2.3445,0,-2.351,-2.3505,-2.3507,-2.3504,-2.3506,-2.3492,-2.3489,-2.3492,-2.3497,-2.3493,-2.3494,-2.3498,-2.35,-2.349,-2.3491,-2.3497,-2.349,-2.3498,-2.3497,-2.3496,-2.3456,-2.3453,-2.3503,-2.3503,-2.3503,-2.3503,-2.3503,-2.3503,-2.3536,-2.3548,-2.354,-2.3549,-2.3543,-2.3549,-2.3548,-2.3546,-2.3543,-2.3548,-2.355,-2.3543,-2.3537,-2.3537,-2.3539,-2.3536,-2.3537,-2.3547,-2.3541,-2.3505,-2.3499,-2.3494,-2.349,-2.3547,-2.3547,-2.3581,-2.3581,-2.3581]}]]